TimeEST,TemperatureF,Dew PointF,Humidity,Sea Level PressureIn,VisibilityMPH,Wind Direction,Wind SpeedMPH,Gust SpeedMPH,PrecipitationIn,Events,Conditions,WindDirDegrees,DateUTC
12:51 AM,43.0,35.1,74,30.23,10.0,NNE,5.8,-,N/A,,Scattered Clouds,20,2012-11-20 05:51:00
1:51 AM,43.0,34.0,71,30.22,10.0,NNE,5.8,-,N/A,,Scattered Clouds,20,2012-11-20 06:51:00
2:51 AM,42.1,35.1,76,30.21,10.0,NNE,5.8,-,N/A,,Scattered Clouds,30,2012-11-20 07:51:00
3:51 AM,41.0,35.1,79,30.20,10.0,North,4.6,-,N/A,,Scattered Clouds,10,2012-11-20 08:51:00
4:51 AM,41.0,34.0,76,30.20,10.0,North,5.8,-,N/A,,Scattered Clouds,360,2012-11-20 09:51:00
5:51 AM,41.0,34.0,76,30.19,10.0,NNE,4.6,-,N/A,,Mostly Cloudy,20,2012-11-20 10:51:00
6:51 AM,42.1,33.1,70,30.20,10.0,NNE,4.6,-,N/A,,Mostly Cloudy,30,2012-11-20 11:51:00
7:51 AM,41.0,33.1,73,30.20,10.0,NNE,4.6,-,N/A,,Mostly Cloudy,30,2012-11-20 12:51:00
8:51 AM,44.1,32.0,63,30.20,10.0,NE,9.2,-,N/A,,Overcast,50,2012-11-20 13:51:00
9:51 AM,44.1,33.1,65,30.19,10.0,NE,11.5,-,N/A,,Overcast,50,2012-11-20 14:51:00
10:51 AM,46.9,33.1,59,30.18,10.0,NE,9.2,-,N/A,,Overcast,50,2012-11-20 15:51:00
11:51 AM,48.0,30.9,52,30.16,10.0,ENE,8.1,-,N/A,,Mostly Cloudy,60,2012-11-20 16:51:00
1:51 PM,48.9,32.0,52,30.13,10.0,NE,8.1,-,N/A,,Overcast,40,2012-11-20 18:51:00
2:51 PM,48.9,32.0,52,30.12,10.0,NE,8.1,-,N/A,,Overcast,50,2012-11-20 19:51:00
3:51 PM,48.9,33.1,54,30.12,10.0,NE,8.1,-,N/A,,Overcast,50,2012-11-20 20:51:00
4:51 PM,48.9,36.0,61,30.13,10.0,NE,8.1,-,N/A,,Overcast,50,2012-11-20 21:51:00
5:51 PM,48.0,34.0,58,30.14,10.0,ENE,5.8,-,N/A,,Mostly Cloudy,70,2012-11-20 22:51:00
6:51 PM,48.0,35.1,61,30.14,10.0,NE,4.6,-,N/A,,Mostly Cloudy,40,2012-11-20 23:51:00
7:51 PM,48.0,35.1,61,30.14,10.0,NE,4.6,-,N/A,,Mostly Cloudy,50,2012-11-21 00:51:00
8:51 PM,46.9,36.0,66,30.14,10.0,NE,5.8,-,N/A,,Mostly Cloudy,50,2012-11-21 01:51:00
9:51 PM,46.0,37.0,71,30.14,10.0,ENE,4.6,-,N/A,,Mostly Cloudy,60,2012-11-21 02:51:00
10:51 PM,46.0,37.0,71,30.15,10.0,NE,3.5,-,N/A,,Mostly Cloudy,50,2012-11-21 03:51:00
11:51 PM,46.0,39.0,76,30.15,10.0,NNE,4.6,-,N/A,,Mostly Cloudy,30,2012-11-21 04:51:00